AO-07 1 07530U 74089B 18095.48525535 -.00000034 00000-0 62811-4 0 9993 2 07530 101.6793 063.9190 0012431 114.9499 355.9194 12.53631823985259 UO-11 1 14781U 84021B 18095.53514519 .00000052 00000-0 12582-4 0 9991 2 14781 097.6582 134.8153 0007588 330.6045 029.4742 14.82992309812673 LO-19 1 20442U 90005G 18095.80014485 .00000022 00000-0 24194-4 0 9997 2 20442 98.6048 34.7591 0011983 9.6593 350.4819 14.32891414473520 HUBBLE 1 20580U 90037B 18095.56331181 .00000458 00000-0 17109-4 0 9994 2 20580 028.4689 235.1827 0002940 078.6313 000.1254 15.09010541334407 MET-2/21 1 22782U 93055A 18095.66070667 -.00000016 00000-0 -27375-4 0 9991 2 22782 82.5491 151.4950 0021547 333.6904 186.7682 13.83808105242142 AO-27 1 22825U 93061C 18095.45369321 .00000003 00000-0 19150-4 0 9997 2 22825 098.8560 070.2790 0008082 191.6777 168.4218 14.30026023278905 IO-26 1 22826U 93061D 18095.41739555 .00000005 00000-0 19459-4 0 9998 2 22826 98.8500 70.2890 0008788 181.7907 178.3245 14.30357203279356 FO-29 1 24278U 96046B 18095.54128885 -.00000052 00000-0 -13833-4 0 9993 2 24278 098.5239 304.2802 0349491 299.5101 057.1609 13.53082557068165 NOAA-15 1 25338U 98030A 18095.49200908 .00000023 00000-0 28544-4 0 9998 2 25338 98.7743 111.8594 0011635 80.2508 279.9985 14.25844805 34668 GO-32 1 25397U 98043D 18095.78159693 -.00000007 00000-0 16054-4 0 9999 2 25397 98.6440 37.4422 0000764 168.6742 191.4454 14.23642725 25429 ISS 1 25544U 98067A 18095.88148157 .00002236 00000-0 40882-4 0 9994 2 25544 51.6441 19.1717 0001462 306.4114 165.1116 15.54200477107274 NO-44 1 26931U 01043C 18095.64196275 -.00000038 00000-0 17137-4 0 9997 2 26931 67.0518 56.5963 0006883 282.7275 77.3057 14.30499462862177 SO-50 1 27607U 02058C 18095.07790378 -.00000005 00000-0 20022-4 0 9997 2 27607 064.5552 313.5030 0056820 345.3013 014.6434 14.75435635822047 CO-55 1 27844U 03031E 18095.48981241 .00000039 00000-0 37530-4 0 9996 2 27844 098.6891 105.2121 0009064 216.3371 143.7192 14.22103701765828 CO-57 1 27848U 03031J 18095.49930892 .00000028 00000-0 32543-4 0 9994 2 27848 098.6979 105.5947 0008814 227.2794 132.7642 14.21708928765706 RS-22 1 27939U 03042A 18095.87758464 .00000086 00000-0 23917-4 0 9991 2 27939 97.9781 236.9285 0013367 23.8865 127.2237 14.66671495776216 NOAA-18 1 28654U 05018A 18095.56427512 -.00000025 00000-0 11571-4 0 9991 2 28654 099.1537 129.5094 0013710 335.1770 024.8739 14.12371429663438 CO-58 1 28895U 05043F 18095.66897515 .00000127 00000-0 33262-4 0 9994 2 28895 97.8982 250.1045 0015543 300.9129 59.0545 14.63526456663269 Falconsat-3 1 30776U 07006E 18095.78676171 .00002705 00000-0 81296-4 0 9996 2 30776 35.4372 7.5438 0001717 95.8385 264.2537 15.34193151613192 CO-65 1 32785U 08021C 18095.49477601 .00000205 00000-0 27944-4 0 9994 2 32785 097.5511 111.1312 0011515 280.8822 079.1099 14.88088843538292 AAUSAT2 1 32788U 08021F 18095.50157492 .00000678 00000-0 68203-4 0 9999 2 32788 097.5290 125.0120 0010686 226.3408 133.6928 14.94275232539221 DO-64 1 32789U 08021G 18095.22352093 .00001457 00000-0 10435-3 0 9992 2 32789 097.5205 151.8599 0012736 179.4407 180.6836 15.05880282540705 CO-66 1 32791U 08021J 18095.83592582 .00000196 00000-0 25468-4 0 9993 2 32791 97.5415 116.6475 0011822 257.9325 102.0569 14.90505515538736 RS-30 1 32953U 08025A 18095.84480923 .00000028 00000-0 13048-3 0 9997 2 32953 82.5033 57.6619 0019624 11.3273 348.8244 12.43082552447783 PRISM 1 33493U 09002B 18095.87339712 .00000970 00000-0 91705-4 0 9998 2 33493 98.1384 355.1654 0014585 189.5237 170.5708 14.96138932499538 NOAA-19 1 33591U 09005A 18095.52226929 .00000089 00000-0 73456-4 0 9991 2 33591 099.1357 072.1330 0014134 166.8650 193.2891 14.12267089471654 TISAT-1 1 36799U 10035E 18095.42506529 .00000318 00000-0 38426-4 0 9998 2 36799 098.0942 229.7654 0013772 088.5564 271.7231 14.90742178419111 JUGNU 1 37839U 11058B 18095.31182979 .00000322 00000-0 29625-4 0 9993 2 37839 019.9608 119.1479 0018989 162.7765 297.7004 14.12614696334948 SRMSAT 1 37841U 11058D 18095.51434036 .00000293 00000-0 15748-4 0 9990 2 37841 019.9711 165.6256 0012076 052.8225 073.4160 14.10602471334517 AO-71 1 37854U 11061E 18095.49979800 .00000948 00000-0 57700-4 0 9999 2 37854 101.7109 123.2333 0163944 289.0292 069.3223 15.05260304350441 HRBE 1 37855U 11061F 18095.51064920 .00000719 00000-0 45152-4 0 9995 2 37855 101.7242 120.8563 0176876 297.3242 061.0059 15.04239275350250 ALMASAT-1 1 38078U 12006B 18095.83327547 .00020938 38886-5 19226-3 0 9990 2 38078 69.4354 56.3457 0258115 215.8047 230.2435 15.36485101329522 HORYU-2 1 38340U 12025D 18095.51524000 .00000176 00000-0 34003-4 0 9996 2 38340 098.3716 114.7230 0012941 083.6483 276.6198 14.75523116305980 RS-40 1 38735U 12041C 18095.56814231 .00000006 00000-0 -28147-4 0 9990 2 38735 082.4746 141.9054 0018220 111.6919 248.6102 12.42576822257987 BEESAT-3 1 39134U 13015E 18095.19010925 .00001071 00000-0 60401-4 0 9994 2 39134 064.8652 003.0069 0020734 219.3213 140.6409 15.18960662273435 BEESAT-2 1 39136U 13015G 18095.16925079 .00000739 00000-0 48250-4 0 9996 2 39136 64.8712 18.0793 0026876 244.8478 114.9860 15.15990643273527 ZACUBE-1 1 39417U 13066B 18095.54509547 .00000200 00000-0 31631-4 0 9992 2 39417 097.5949 128.0338 0059933 034.4876 326.0203 14.80902403236047 TRITON-1 1 39427U 13066M 18095.41912453 .00000181 00000-0 36556-4 0 9992 2 39427 97.6401 96.1767 0115262 132.0112 229.0978 14.67630947233908 GOMX-1 1 39430U 13066Q 18095.88503875 .00000171 00000-0 40064-4 0 9999 2 39430 97.6920 77.9951 0151057 198.2778 161.2960 14.59047592232618 LO-74 1 39440U 13066AA 18095.51867374 .00000208 00000-0 35894-4 0 9993 2 39440 097.6062 115.0554 0082033 071.9658 289.0469 14.75636776234004 AO-73 1 39444U 13066AE 18095.30883920 .00000252 00000-0 37496-4 0 9998 2 39444 097.5960 129.2428 0059008 031.0136 329.4540 14.81671915234274 SPROUT 1 39770U 14029E 18095.84293179 .00000429 00000-0 54332-4 0 9994 2 39770 97.8727 197.5160 0010828 87.5211 272.7257 14.86747132209613 DUCHIFAT-1 1 40021U 14033M 18095.34305856 .00000359 00000-0 42814-4 0 9995 2 40021 97.9170 13.9302 0014379 61.4542 298.8121 14.90244436206103 NANOSATCBR1 1 40024U 14033Q 18095.54981015 .00000288 00000-0 36174-4 0 9990 2 40024 097.9109 012.5222 0013692 062.9027 297.3585 14.89516327205549 EO-79 1 40025U 14033R 18095.55624155 .00000278 00000-0 35794-4 0 9997 2 40025 097.9074 011.0973 0013918 066.5424 293.7254 14.88669462205473 DTUSAT-2 1 40030U 14033W 18095.30047827 .00000284 00000-0 36747-4 0 9997 2 40030 97.9025 9.6297 0013321 62.7289 297.5283 14.88280835205895 EO-80 1 40032U 14033Y 18095.55703427 .00000272 00000-0 35466-4 0 9995 2 40032 097.9031 009.8889 0013267 062.5523 297.7041 14.88217354205408 ANTELSAT 1 40034U 14033AA 18095.22484872 .00000223 00000-0 40575-4 0 9994 2 40034 097.8217 334.4854 0060351 073.4097 287.3728 14.73887749203407 VELOX-1 1 40057U 14034E 18095.70561983 .00000292 00000-0 48667-4 0 9998 2 40057 98.1952 205.5361 0010688 193.0539 167.0397 14.77378708202949 DAURIA DX 1 1 40071U 14037C 18095.79687773 .00000117 00000-0 22507-4 0 9993 2 40071 98.3625 223.9794 0007977 184.8136 175.3010 14.81138793202280 UKUBE-1 1 40074U 14037F 18095.72530585 .00000248 00000-0 37100-4 0 9997 2 40074 98.3753 229.3732 0004551 172.0595 188.0690 14.83752182202551 HODOYOSHI-1 1 40299U 14070B 18095.78452549 .00000572 00000-0 27385-4 0 9996 2 40299 97.3798 178.8352 0013943 138.8571 316.6201 15.22801275189466 CHUBUSAT-1 1 40300U 14070C 18095.74991802 .00000664 00000-0 32474-4 0 9992 2 40300 97.3680 174.9841 0020951 151.7733 307.3168 15.21462929189265 QSAT-EOS 1 40301U 14070D 18095.86389001 .00001687 00000-0 70837-4 0 9999 2 40301 97.3622 176.1026 0027602 144.2159 308.7753 15.24505116189400 FIREBIRD FU3 1 40377U 15003B 18095.63570229 .00001935 00000-0 82691-4 0 9995 2 40377 99.0951 342.9866 0133043 111.7528 249.7921 15.16912220175324 FIREBIRD FU4 1 40378U 15003C 18095.62502196 .00001893 00000-0 80900-4 0 9997 2 40378 99.0953 343.0280 0133263 111.6825 249.8655 15.16922417175326 GRIFEX 1 40379U 15003D 18095.25849364 .00001492 00000-0 68978-4 0 9994 2 40379 99.0989 339.0839 0139891 124.3858 237.0690 15.14109868175065 NO-84 1 40654U 15025D 18095.21844091 .00004715 00000-0 85336-4 0 02645 2 40654 054.9963 005.6236 0157789 284.1388 074.2174 15.39382345044602 NO-83 1 40655U 15025E 18095.14774638 .00011632 00000-0 13825-3 0 03063 2 40655 054.9791 317.0647 0112571 313.7359 045.4402 15.54361800044913 DEORBITSAIL 1 40719U 15032E 18095.66731964 .00000384 00000-0 62574-4 0 9990 2 40719 97.9528 350.3350 0015101 283.9734 75.9796 14.76375083147476 NUDT-PHONESAT 1 40900U 15049B 18095.81490172 .00001930 00000-0 90046-4 0 9993 2 40900 97.4433 104.9119 0011783 284.8280 75.1650 15.21006003140919 XW-2A 1 40903U 15049E 18095.80899316 .00001666 00000-0 43532-4 0 9992 2 40903 97.3926 129.9242 0012642 294.5046 65.4882 15.40205272142668 XW-2C 1 40906U 15049H 18095.80399184 .00000615 00000-0 36325-4 0 9998 2 40906 97.4607 100.6263 0013412 282.4535 77.5196 15.15090503140539 XW-2D 1 40907U 15049J 18095.82952545 .00000653 00000-0 38222-4 0 9997 2 40907 97.4580 100.3572 0012756 279.9718 80.0075 15.15234205140549 LILACSAT-2 1 40908U 15049K 18095.81582891 .00000345 00000-0 22909-4 0 9993 2 40908 97.4690 99.7948 0014420 281.0579 78.9031 15.13451251140424 XW-2F 1 40910U 15049M 18095.83390207 .00000958 00000-0 52715-4 0 9994 2 40910 97.4585 101.5462 0013445 275.4562 84.5137 15.16376557140482 XW-2B 1 40911U 15049N 18095.84441563 .00000640 00000-0 37580-4 0 9999 2 40911 97.4617 100.8819 0012673 280.5201 79.4603 15.15180751140441 DCBB 1 40912U 15049P 18095.81393781 .00001115 00000-0 57144-4 0 9991 2 40912 97.4515 104.1697 0013543 263.7203 220.6662 15.18574490140683 TW-1C 1 40926U 15051B 18095.89933249 .00006757 00000-0 13163-3 0 9995 2 40926 97.1915 138.6048 0010339 169.2893 315.9180 15.47817506142120 TW-1A 1 40928U 15051D 18095.88773324 .00002557 00000-0 69813-4 0 9990 2 40928 97.1932 131.2926 0010595 215.1088 269.6091 15.38282136141665 IO-86 1 40931U 15052B 18095.04249873 .00000677 00000-0 53034-5 0 9990 2 40931 6.0019 311.6530 0012833 51.9206 308.2106 14.76570545136176 LQSat 1 40958U 15057A 18095.82175185 .00000009 00000-0 90805-5 0 9990 2 40958 97.9446 170.5376 0017430 204.5323 155.5036 14.73023528134198 AO-85 1 40967U 15058D 18095.48440394 .00000319 00000-0 52259-4 0 02863 2 40967 064.7769 051.9729 0199960 336.3695 022.8334 14.75675692042920 ATHENOXAT-1 1 41168U 15077C 18095.75455799 .00001927 00000-0 69201-4 0 9995 2 41168 14.9829 190.3697 0011947 115.8946 315.8876 15.12595214127391 ChubuSat-2 1 41338U 16012B 18095.31281915 .00000374 00000-0 22544-4 0 9997 2 41338 031.0037 056.6393 0013806 072.0067 288.2072 14.99948468116882 ChubuSat-3 1 41339U 16012C 18095.26919244 .00000310 00000-0 17492-4 0 9991 2 41339 31.0108 55.6166 0013520 77.8959 282.3190 15.00138035116863 Horyu-4 1 41340U 16012D 18095.23459492 .00000558 00000-0 36004-4 0 9998 2 41340 31.0058 51.1477 0014051 90.3042 269.9204 15.00931908116922 OUFTI-1 1 41458U 16025C 18095.68028039 .00001705 00000-0 92381-4 0 9995 2 41458 98.1442 154.6370 0171467 31.4643 329.6689 15.04444164106536 e-st@r-II 1 41459U 16025D 18095.80767788 .00001544 00000-0 84345-4 0 9993 2 41459 98.1440 154.6384 0172820 31.6351 329.5100 15.04193876106541 AAUSAT4 1 41460U 16025E 18095.72007566 .00001370 00000-0 74920-4 0 9992 2 41460 98.1372 154.9367 0163587 28.3306 332.6690 15.05531354106585 LO-87 1 41557U 16033B 18095.68365765 .00001293 00000-0 49759-4 0 9997 2 41557 97.4380 180.0340 0015170 58.2496 302.0220 15.28146467103084 NuSat2 1 41558U 16033C 18095.68344643 .00001272 00000-0 49233-4 0 9994 2 41558 97.4408 180.1200 0014613 57.4196 302.8452 15.27978970103076 Lapan A3 1 41603U 16040E 18095.77343294 .00000136 00000-0 95936-5 0 9994 2 41603 97.4194 158.5810 0014752 128.2030 335.4775 15.19533511 99087 Swayam 1 41607U 16040J 18095.21620511 .00001572 00000-0 71745-4 0 9993 2 41607 097.4205 159.2013 0015261 130.4924 229.7645 15.21990403099003 Pratham 1 41783U 16059A 18095.15735692 .00000053 00000-0 19696-4 0 9998 2 41783 098.1255 157.8675 0032745 326.8751 033.0400 14.62910483081284 AlSat 1N 1 41789U 16059G 18095.85946550 .00000078 00000-0 24060-4 0 9996 2 41789 98.1258 159.6362 0027260 317.3170 42.5900 14.64139374 81433 ScatSat 1 41790U 16059H 18095.55489150 .00000006 00000-0 12798-4 0 9999 2 41790 098.2688 144.6286 0017393 317.7644 042.2210 14.50866182080651 TY-1 1 41844U 16066D 18095.81449280 .00001303 00000-0 58248-4 0 9997 2 41844 97.4065 103.7471 0013884 295.0029 190.2123 15.23030652 77861 Pegasus-1 1 41846U 16066F 18095.51245281 .00000316 00000-0 57535-4 0 9992 2 41846 098.7612 122.4547 0369621 102.6057 261.6720 14.37289063073468 CAS-2T 1 41847U 16066G 18095.53416961 .00000187 00000-0 37843-4 0 9996 2 41847 098.7564 122.8826 0366883 100.2644 264.0116 14.37874742073888 TO-89 1 41932U 98067KU 18095.74111327 .00025648 00000-0 19715-3 0 9999 2 41932 51.6374 352.9473 0002702 266.0314 94.0376 15.71856639 69356 AOBA-V3LOX3 1 41935U 98067KX 18095.14231331 .00032395 00000-0 22345-3 0 9994 2 41935 51.6372 353.4059 0002014 252.2566 107.8214 15.74273240 69397 EO-88 1 42017U 17008BX 18095.75577910 .00001354 00000-0 58533-4 0 9995 2 42017 97.4552 161.2274 0004784 275.2840 84.7852 15.24196411 63032 HAVELSAT 1 42700U 98067LH 18095.74432351 .00023876 00000-0 22142-3 0 9995 2 42700 51.6377 4.2150 0002975 350.8009 9.2932 15.67339375 50643 SOMP2 1 42701U 98067LJ 18095.75831649 .00020811 00000-0 19909-3 0 9993 2 42701 51.6377 5.0581 0003088 350.0534 10.0400 15.66660144 50620 PHOENIX 1 42706U 98067LP 18095.75862545 .00020911 00000-0 20387-3 0 9990 2 42706 51.6376 5.0650 0000373 172.3428 187.7573 15.66184517 50541 X-CubeSat 1 42707U 98067LQ 18095.74457515 .00023851 00000-0 21841-3 0 9999 2 42707 51.6349 4.1757 0000668 173.3188 186.7818 15.67654884 50542 qbee 1 42708U 98067LR 18095.78531286 .00022838 00000-0 21415-3 0 9993 2 42708 51.6378 4.4769 0000550 175.8904 184.2097 15.67095227 50502 ZA-AeroSat 1 42713U 98067LU 18095.15470495 .00018148 00000-0 18591-3 0 9994 2 42713 51.6369 10.0227 0001360 221.8253 138.2638 15.65043997 50087 LINK 1 42714U 98067LV 18095.34791773 .00046405 00000-0 34687-3 0 9992 2 42714 51.6325 2.9838 0001911 199.0043 161.0884 15.72214305 50306 UPSat 1 42716U 98067LX 18095.75815708 .00031983 00000-0 26249-3 0 9994 2 42716 51.6363 2.0333 0001203 9.0452 351.0567 15.70159560 50374 SpaceCube 1 42717U 98067LY 18095.74567279 .00022714 00000-0 21357-3 0 9998 2 42717 51.6362 4.9582 0001751 359.9866 0.1130 15.67031685 49576 Hoopoe 1 42718U 98067LZ 18095.74873640 .00027387 00000-0 23994-3 0 9991 2 42718 51.6371 3.4824 0001355 359.6721 0.4275 15.68658070 49596 Challenger 1 42721U 98067MA 18095.71863950 .00043968 00000-0 28816-3 0 9996 2 42721 51.6336 358.7056 0001980 307.3080 52.7739 15.75306630 49355 NJUST-1 1 42722U 98067MB 18095.81417250 .00016782 00000-0 17751-3 0 9996 2 42722 51.6378 7.6879 0004428 325.0332 35.0371 15.64289780 49240 UNSW-EC0 1 42723U 98067MC 18095.77335326 .00029595 00000-0 25535-3 0 9990 2 42723 51.6385 3.6659 0003040 321.5335 38.5445 15.68984496 49277 DUTHsat 1 42724U 98067MD 18095.73756232 .00049835 00000-0 34071-3 0 9994 2 42724 51.6352 359.6106 0001332 307.0431 53.0446 15.74276123 49249 LO-90 1 42725U 98067ME 18095.82510594 .00021071 00000-0 20692-3 0 9990 2 42725 51.6377 6.2594 0003219 328.2790 31.8011 15.65995562 49160 nSIGHT1 1 42726U 98067MF 18095.77944092 .00007475 00000-0 95463-4 0 9990 2 42726 51.6400 11.9910 0004661 329.3158 30.7562 15.60388138 49096 QBITO 1 42728U 98067MH 18095.26758642 .00025608 00000-0 23966-3 0 9996 2 42728 51.6396 7.8234 0001104 344.6644 15.4319 15.67070803 48907 Aalto-2 1 42729U 98067MJ 18095.76724823 .00024158 00000-0 22458-3 0 9990 2 42729 51.6376 5.1219 0000984 344.7037 15.3930 15.67273567 48991 SUSat 1 42730U 98067MK 18095.76788883 .00021170 00000-0 20464-3 0 9994 2 42730 51.6373 5.8668 0001211 338.6985 21.3960 15.66390078 48977 i-INSPIRE II 1 42731U 98067ML 18095.34457987 .00031749 00000-0 26804-3 0 9994 2 42731 51.6364 5.2523 0003970 253.0821 106.9741 15.69472469 48992 PolyITAN-2-SAU 1 42732U 98067MM 18095.74125160 .00023304 00000-0 21484-3 0 9991 2 42732 51.6369 4.9203 0004368 255.3254 104.7258 15.67497517 49030 SNUSAT-1 1 42733U 98067MN 18095.76862701 .00021541 00000-0 20761-3 0 9991 2 42733 51.6374 5.8630 0004478 261.2329 98.8160 15.66444797 49027 ExAlta-1 1 42734U 98067MP 18095.34727338 .00035237 00000-0 29436-3 0 9997 2 42734 51.6349 5.2594 0004368 287.0529 72.9989 15.69673089 48942 Aoxiang-1 1 42735U 98067MQ 18095.85594316 .00016542 00000-0 17344-3 0 9995 2 42735 51.6372 7.2004 0004857 320.7674 39.2968 15.64524396 50381 BeEagleSat 1 42736U 98067MR 18095.39482168 .00018375 00000-0 18430-3 0 9999 2 42736 51.6369 8.6144 0004479 317.8743 42.1907 15.65562681 49016 Atlantis 1 42737U 98067MS 18087.11387049 .13966215 12356-4 93055-3 0 9999 2 42737 51.6095 27.8979 0006293 234.7874 125.2564 16.40626348 47903 CAS-4B 1 42759U 17034B 18095.54500718 .00000204 00000-0 26165-4 0 9995 2 42759 43.0187 122.0454 0008868 2.6281 134.0334 15.09236339 44477 CAS-4A 1 42761U 17034D 18095.59883642 .00000152 00000-0 22956-4 0 9999 2 42761 43.0189 121.5639 0009366 5.4432 143.5702 15.09311942 44472 UCLSat 1 42765U 17036A 18095.22018669 .00001226 00000-0 57278-4 0 9992 2 42765 097.4090 156.2216 0011120 340.2870 019.7934 15.21648074044208 NIUSat 1 42766U 17036B 18095.40477153 .00000972 00000-0 47929-4 0 9999 2 42766 097.4092 155.8356 0014927 323.6404 036.3816 15.20226537043474 LituanicaSAT 2 1 42768U 17036D 18095.38318899 .00001934 00000-0 90042-4 0 9992 2 42768 097.4103 156.0271 0014707 326.3703 033.6598 15.21048521043491 Aalto 1 1 42775U 17036L 18095.12440302 .00000774 00000-0 38389-4 0 9994 2 42775 097.4085 155.7390 0013232 325.9935 034.0451 15.20609218043397 URSA MAIOR 1 42776U 17036M 18095.24608579 .00000859 00000-0 42166-4 0 9992 2 42776 097.4091 155.8954 0013040 325.8337 034.2058 15.20678886043419 Max Valier Sat 1 42778U 17036P 18095.82441058 .00000875 00000-0 42348-4 0 9995 2 42778 97.4113 156.7147 0011620 329.9695 30.0873 15.21140994 43508 Pegasus 1 42784U 17036V 18095.11719208 .00001037 00000-0 49179-4 0 9999 2 42784 097.4093 156.0638 0011664 340.1816 019.8965 15.21467166043407 NUDATSat 1 42787U 17036Y 18095.58705721 .00001542 00000-0 70608-4 0 9990 2 42787 097.4098 156.6630 0011122 338.5335 021.5433 15.21957895043323 SUCHAI 1 1 42788U 17036Z 18095.21806722 .00001365 00000-0 63306-4 0 9994 2 42788 097.4093 156.2323 0011250 340.1491 019.9305 15.21703890043499 SKCUBE 1 42789U 17036AA 18095.21604264 .00001271 00000-0 59216-4 0 9993 2 42789 097.4092 156.2305 0011090 340.1743 019.9061 15.21681613043410 VZLUSAT 1 1 42790U 17036AB 18095.11728647 .00001548 00000-0 70799-4 0 9992 2 42790 097.4095 156.2082 0010753 341.0760 019.0075 15.21984712043402 VENTA 1 1 42791U 17036AC 18095.52906015 .00001079 00000-0 50640-4 0 9997 2 42791 097.4091 156.5729 0010730 339.9943 020.0870 15.21743989043453 Robusta 1B 1 42792U 17036AD 18095.38864597 .00001261 00000-0 58530-4 0 9999 2 42792 097.4090 156.4488 0010689 341.0339 019.0497 15.21820758043453 D-SAT 1 42794U 17036AF 18095.22123147 .00000314 00000-0 32784-4 0 9994 2 42794 97.6005 152.6038 0127691 164.3828 196.1388 14.90815213 42857 BIRD-J 1 42820U 98067MU 18095.16914938 .00019266 00000-0 19994-3 0 9999 2 42820 051.6372 011.6126 0002111 218.7955 141.2888 15.64667681042436 BIRD-G 1 42821U 98067MV 18095.77529598 .00018349 00000-0 19334-3 0 9990 2 42821 51.6372 8.9107 0002051 226.4510 133.6315 15.64319182 42486 BIRD-M 1 42822U 98067MW 18095.19128893 .00020436 00000-0 21347-3 0 9997 2 42822 051.6373 011.7636 0001978 225.9354 134.1479 15.64458129042419 BIRD-B 1 42823U 98067MX 18095.76572286 .00018972 00000-0 19795-3 0 9996 2 42823 51.6377 8.8629 0004014 269.5039 90.5496 15.64539413 42488 BIRD-N 1 42824U 98067MY 18095.20696868 .00019365 00000-0 20324-3 0 9996 2 42824 051.6385 011.8932 0003909 267.8595 092.1952 15.64374555042411 TechnoSat 1 42829U 17042E 18095.87520578 .00000255 00000-0 31281-4 0 9995 2 42829 97.6025 0.9294 0015838 80.8690 279.4319 14.90790425 39565 TOMSK-TPU 120 1 42910U 98067MZ 18095.83016708 .00014578 00000-0 16893-3 0 9997 2 42910 51.6369 11.5158 0004967 300.0881 59.9620 15.62062796 36065 TANYUSHA 1 1 42911U 98067NA 18095.78831123 .00014719 00000-0 16622-3 0 9995 2 42911 51.6378 11.2681 0004411 293.2628 66.7902 15.62725729 36049 TANYUSHA 2 1 42912U 98067NB 18095.83153059 .00015505 00000-0 17775-3 0 9991 2 42912 51.6383 11.5226 0003926 310.3518 49.7133 15.62288486 36066 SFERA 2 1 42913U 98067NC 18095.36468386 .00033016 00000-0 30500-3 0 9990 2 42913 051.6360 009.8974 0002008 318.1032 041.9810 15.67248332036044 TNS 0-2 1 42914U 98067ND 18095.35369237 .00014627 00000-0 17107-3 0 9990 2 42914 51.6382 14.3644 0003926 300.1373 59.9231 15.61823873 35973 QIKCOM-1 1 42983U 98067NF 18095.39425038 .00003116 00000-0 51324-4 0 9993 2 42983 51.6450 20.4498 0003194 292.5831 164.6945 15.55732644 24882 AO-91 1 43017U 17073E 18095.36915245 .00000448 00000-0 40423-4 0 9994 2 43017 097.7036 029.5606 0260850 148.3801 213.3385 14.77961399020354 EcAMSat 1 43019U 98067NG 18095.74153903 .00004764 00000-0 73327-4 0 9999 2 43019 51.6412 18.4814 0004279 260.5879 99.4629 15.56279362107264 PICSAT 1 43132U 18004X 18095.22430886 .00001306 00000-0 59543-4 0 9992 2 43132 097.5417 157.6863 0009916 003.8313 356.2997 15.22430661012618 AO-92 1 43137U 18004AC 18095.61133739 .00000945 00000-0 43809-4 0 9993 2 43137 97.5414 158.0897 0009497 4.8525 355.2801 15.22540134 12667 TianYi 2 1 43155U 18008A 18095.82516919 .00001011 00000-0 65129-4 0 9999 2 43155 97.5287 171.5166 0019141 38.0075 72.7000 15.10431397 11567 TianYi 6 1 43158U 18008D 18095.86598071 .00000700 00000-0 47421-4 0 9994 2 43158 97.5304 171.4683 0015044 33.4455 70.8409 15.09601473 11544 S-Net G 1 43186U 18014G 18095.53784802 -.00000469 00000-0 -36221-4 0 9995 2 43186 97.7268 4.9286 0012473 37.1764 323.0319 14.96405677 9455 S-Net H 1 43187U 18014H 18092.99700504 .00000702 00000-0 66934-4 0 9992 2 43187 97.7316 2.4219 0012833 46.4086 314.6070 14.96418323 9079 S-Net J 1 43188U 18014J 18095.53777691 -.00000391 00000-0 -29378-4 0 9994 2 43188 97.7278 4.9309 0012364 37.5141 322.6965 14.96407946 9459 S-Net K 1 43189U 18014K 18095.33721298 -.00000360 00000-0 -26643-4 0 9993 2 43189 97.7281 4.7311 0012663 39.0702 321.1429 14.96407557 7979 FMN 1 1 43192U 18015A 18095.61754608 .00001879 00000-0 83788-4 0 9997 2 43192 097.3444 226.0717 0018424 042.2428 318.0231 15.22490723009471 Shaonian Xing 1 43199U 18015H 18095.57728233 .00001411 00000-0 61897-4 0 9993 2 43199 097.3217 225.9415 0019314 054.7408 305.5632 15.23443101009480 /EX